TimeEDT,TemperatureF,Dew PointF,Humidity,Sea Level PressureIn,VisibilityMPH,Wind Direction,Wind SpeedMPH,Gust SpeedMPH,PrecipitationIn,Events,Conditions,WindDirDegrees,DateUTC
12:12 AM,51.8,50.0,94,30.27,10.0,Calm,Calm,-,N/A,,Clear,0,2013-09-29 04:12:00
12:32 AM,50.0,50.0,100,30.27,10.0,Calm,Calm,-,N/A,,Clear,0,2013-09-29 04:32:00
12:52 AM,50.0,50.0,100,30.27,10.0,Calm,Calm,-,N/A,,Clear,0,2013-09-29 04:52:00
1:12 AM,50.0,50.0,100,30.27,10.0,Calm,Calm,-,N/A,,Clear,0,2013-09-29 05:12:00
1:32 AM,50.0,48.2,94,30.26,10.0,Calm,Calm,-,N/A,,Clear,0,2013-09-29 05:32:00
1:52 AM,48.2,46.4,93,30.26,5.0,Calm,Calm,-,N/A,,Clear,0,2013-09-29 05:52:00
2:12 AM,46.4,46.4,100,30.26,10.0,Calm,Calm,-,N/A,,Clear,0,2013-09-29 06:12:00
2:33 AM,46.4,44.6,93,30.26,0.5,Calm,Calm,-,N/A,,Unknown,0,2013-09-29 06:33:00
2:53 AM,46.4,46.4,100,30.25,3.0,Calm,Calm,-,N/A,,Mostly Cloudy,0,2013-09-29 06:53:00
3:13 AM,44.6,44.6,100,30.25,10.0,NE,3.5,-,N/A,,Mostly Cloudy,40,2013-09-29 07:13:00
3:33 AM,46.4,46.4,100,30.25,10.0,Calm,Calm,-,N/A,,Mostly Cloudy,0,2013-09-29 07:33:00
3:53 AM,46.4,46.4,100,30.24,7.0,Calm,Calm,-,N/A,,Overcast,0,2013-09-29 07:53:00
4:13 AM,48.2,46.4,93,30.24,4.0,Calm,Calm,-,N/A,,Overcast,0,2013-09-29 08:13:00
4:33 AM,48.2,46.4,93,30.24,3.0,Calm,Calm,-,N/A,,Overcast,0,2013-09-29 08:33:00
4:53 AM,46.4,46.4,100,30.24,0.8,Calm,Calm,-,N/A,,Overcast,0,2013-09-29 08:53:00
5:13 AM,46.4,46.4,100,30.24,0.5,Calm,Calm,-,N/A,,Overcast,0,2013-09-29 09:13:00
5:33 AM,46.4,46.4,100,30.24,0.2,Calm,Calm,-,N/A,,Overcast,0,2013-09-29 09:33:00
5:53 AM,46.4,46.4,100,30.24,0.2,Calm,Calm,-,N/A,,Overcast,0,2013-09-29 09:53:00
6:13 AM,46.4,46.4,100,30.25,0.2,Calm,Calm,-,N/A,,Overcast,0,2013-09-29 10:13:00
6:33 AM,46.4,46.4,100,30.25,0.2,Calm,Calm,-,N/A,,Overcast,0,2013-09-29 10:33:00
6:53 AM,46.4,46.4,100,30.25,0.5,Calm,Calm,-,N/A,,Overcast,0,2013-09-29 10:53:00
7:13 AM,46.4,46.4,100,30.25,0.2,Calm,Calm,-,N/A,,Overcast,0,2013-09-29 11:13:00
7:33 AM,46.4,46.4,100,30.25,0.2,Calm,Calm,-,N/A,,Overcast,0,2013-09-29 11:33:00
7:53 AM,46.4,46.4,100,30.25,0.5,Calm,Calm,-,N/A,,Overcast,0,2013-09-29 11:53:00
8:13 AM,46.4,46.4,100,30.25,0.5,Calm,Calm,-,N/A,,Unknown,0,2013-09-29 12:13:00
8:33 AM,46.4,46.4,100,30.25,0.5,Calm,Calm,-,N/A,,Overcast,0,2013-09-29 12:33:00
8:53 AM,46.4,46.4,100,30.25,0.2,Calm,Calm,-,N/A,,Overcast,0,2013-09-29 12:53:00
9:13 AM,46.4,46.4,100,30.25,0.5,Calm,Calm,-,N/A,,Overcast,0,2013-09-29 13:13:00
9:33 AM,48.2,46.4,93,30.25,0.5,Calm,Calm,-,N/A,,Overcast,0,2013-09-29 13:33:00
9:53 AM,48.2,48.2,100,30.24,0.2,Calm,Calm,-,N/A,,Overcast,0,2013-09-29 13:53:00
10:13 AM,50.0,50.0,100,30.25,0.5,Calm,Calm,-,N/A,,Overcast,0,2013-09-29 14:13:00
10:33 AM,50.0,50.0,100,30.24,0.2,Calm,Calm,-,N/A,,Overcast,0,2013-09-29 14:33:00
10:54 AM,50.0,50.0,100,30.24,0.5,Calm,Calm,-,N/A,,Overcast,0,2013-09-29 14:54:00
11:14 AM,51.8,51.8,100,30.24,1.0,Calm,Calm,-,N/A,,Overcast,0,2013-09-29 15:14:00
11:34 AM,53.6,51.8,94,30.23,2.5,Calm,Calm,-,N/A,,Overcast,0,2013-09-29 15:34:00
11:54 AM,55.4,53.6,94,30.22,3.0,WSW,3.5,-,N/A,,Overcast,240,2013-09-29 15:54:00
12:14 PM,59.0,53.6,82,30.20,5.0,Calm,Calm,-,N/A,,Scattered Clouds,0,2013-09-29 16:14:00
12:34 PM,62.6,51.8,68,30.20,10.0,SE,3.5,-,N/A,,Clear,130,2013-09-29 16:34:00
12:54 PM,64.4,50.0,59,30.19,10.0,South,4.6,-,N/A,,Clear,190,2013-09-29 16:54:00
1:14 PM,66.2,50.0,56,30.18,10.0,SW,4.6,-,N/A,,Clear,230,2013-09-29 17:14:00
1:34 PM,68.0,50.0,52,30.17,10.0,WSW,4.6,-,N/A,,Clear,250,2013-09-29 17:34:00
1:54 PM,69.8,50.0,49,30.16,10.0,South,3.5,-,N/A,,Clear,170,2013-09-29 17:54:00
2:14 PM,69.8,50.0,49,30.15,10.0,SSW,3.5,-,N/A,,Clear,200,2013-09-29 18:14:00
2:34 PM,69.8,50.0,49,30.14,10.0,Calm,Calm,-,N/A,,Mostly Cloudy,0,2013-09-29 18:34:00
2:54 PM,71.6,50.0,46,30.13,10.0,Calm,Calm,-,N/A,,Mostly Cloudy,0,2013-09-29 18:54:00
3:14 PM,71.6,50.0,46,30.13,10.0,East,3.5,-,N/A,,Scattered Clouds,90,2013-09-29 19:14:00
3:34 PM,73.4,48.2,41,30.12,10.0,SE,4.6,-,N/A,,Clear,130,2013-09-29 19:34:00
3:54 PM,73.4,48.2,41,30.11,10.0,Calm,Calm,-,N/A,,Clear,0,2013-09-29 19:54:00
4:14 PM,73.4,50.0,44,30.11,10.0,Calm,Calm,-,N/A,,Clear,0,2013-09-29 20:14:00
4:34 PM,73.4,50.0,44,30.10,10.0,ESE,5.8,-,N/A,,Clear,110,2013-09-29 20:34:00
4:54 PM,73.4,50.0,44,30.10,10.0,ENE,8.1,-,N/A,,Scattered Clouds,70,2013-09-29 20:54:00
5:14 PM,71.6,50.0,46,30.10,10.0,East,5.8,-,N/A,,Scattered Clouds,80,2013-09-29 21:14:00
5:34 PM,73.4,50.0,44,30.10,10.0,East,3.5,-,N/A,,Clear,90,2013-09-29 21:34:00
5:54 PM,71.6,50.0,46,30.10,10.0,East,5.8,-,N/A,,Clear,100,2013-09-29 21:54:00
6:14 PM,71.6,50.0,46,30.10,10.0,East,4.6,-,N/A,,Clear,100,2013-09-29 22:14:00
6:34 PM,69.8,50.0,49,30.10,10.0,Calm,Calm,-,N/A,,Clear,0,2013-09-29 22:34:00
6:54 PM,68.0,50.0,52,30.10,10.0,Calm,Calm,-,N/A,,Clear,0,2013-09-29 22:54:00
7:14 PM,66.2,50.0,56,30.10,10.0,Calm,Calm,-,N/A,,Clear,0,2013-09-29 23:14:00
7:34 PM,64.4,50.0,59,30.11,10.0,Calm,Calm,-,N/A,,Clear,0,2013-09-29 23:34:00
7:54 PM,64.4,50.0,59,30.10,10.0,Calm,Calm,-,N/A,,Clear,0,2013-09-29 23:54:00
8:15 PM,62.6,50.0,63,30.11,10.0,Calm,Calm,-,N/A,,Clear,0,2013-09-30 00:15:00
8:35 PM,60.8,51.8,72,30.11,10.0,NNW,3.5,-,N/A,,Clear,330,2013-09-30 00:35:00
8:55 PM,60.8,51.8,72,30.12,10.0,NNW,5.8,-,N/A,,Clear,330,2013-09-30 00:55:00
9:15 PM,59.0,51.8,77,30.12,10.0,North,4.6,-,N/A,,Clear,360,2013-09-30 01:15:00
9:35 PM,59.0,51.8,77,30.13,10.0,NNE,3.5,-,N/A,,Clear,30,2013-09-30 01:35:00
9:55 PM,57.2,51.8,82,30.13,10.0,North,4.6,-,N/A,,Scattered Clouds,350,2013-09-30 01:55:00
10:15 PM,57.2,51.8,82,30.13,10.0,North,5.8,-,N/A,,Mostly Cloudy,350,2013-09-30 02:15:00
10:35 PM,57.2,51.8,82,30.13,10.0,NNW,3.5,-,N/A,,Scattered Clouds,330,2013-09-30 02:35:00
10:55 PM,57.2,51.8,82,30.13,10.0,North,3.5,-,N/A,,Scattered Clouds,350,2013-09-30 02:55:00
11:15 PM,53.6,50.0,88,30.12,10.0,NNE,3.5,-,N/A,,Scattered Clouds,30,2013-09-30 03:15:00
11:35 PM,55.4,51.8,88,30.12,10.0,NNW,3.5,-,N/A,,Clear,340,2013-09-30 03:35:00
11:55 PM,55.4,51.8,88,30.12,10.0,Calm,Calm,-,N/A,,Clear,0,2013-09-30 03:55:00